• In Romania
  • List of Countries
  • For 7 days
  • Water Temperature
  • Satellite Maps
  • Weather Map
  • Weather Widgets
  • user-avatar
    Login

    Hourly Weather Mingachevir

    Today, 22 February, Wednesday

    Time Temperature Precipitation Wind Pressure Humidity
    00:00 +4°C° 0 mm 3 mps 752 mmHg 63%
    01:00 +3°C° 0 mm 3 mps 752 mmHg 61%
    02:00 +3°C° 0 mm 3 mps 752 mmHg 59%
    03:00 +3°C° 0 mm 4 mps 752 mmHg 57%
    04:00 +3°C° 0 mm 4 mps 752 mmHg 57%
    05:00 +3°C° 0 mm 4 mps 752 mmHg 56%
    06:00 +3°C° 0 mm 4 mps 752 mmHg 56%
    07:00 +3°C° 0 mm 5 mps 752 mmHg 52%
    08:00 +6°C° 0 mm 5 mps 752 mmHg 49%
    09:00 +7°C° 0 mm 5 mps 752 mmHg 46%
    10:00 +9°C° 0 mm 5 mps 752 mmHg 43%
    11:00 +10°C° 0 mm 6 mps 751 mmHg 40%
    12:00 +11°C° 0 mm 6 mps 751 mmHg 37%
    13:00 +13°C° 0 mm 6 mps 751 mmHg 38%
    14:00 +13°C° 0 mm 5 mps 751 mmHg 39%
    15:00 +13°C° 0 mm 5 mps 751 mmHg 40%
    16:00 +11°C° 0 mm 4 mps 751 mmHg 45%
    17:00 +9°C° 0 mm 3 mps 751 mmHg 50%
    18:00 +7°C° 0 mm 3 mps 752 mmHg 55%
    19:00 +7°C° 0 mm 3 mps 752 mmHg 54%
    20:00 +5°C° 0 mm 3 mps 752 mmHg 54%
    21:00 +5°C° 0 mm 3 mps 753 mmHg 53%
    22:00 +5°C° 0 mm 3 mps 752 mmHg 53%
    23:00 +5°C° 0 mm 3 mps 752 mmHg 53%

    Tomorrow, 23 February, Thursday

    Time Temperature Precipitation Wind Pressure Humidity
    00:00 +4°C° 0 mm 3 mps 752 mmHg 54%
    01:00 +4°C° 0 mm 3 mps 752 mmHg 54%
    02:00 +4°C° 0 mm 3 mps 752 mmHg 54%
    03:00 +4°C° 0 mm 4 mps 752 mmHg 55%
    04:00 +3°C° 0 mm 5 mps 752 mmHg 56%
    05:00 +3°C° 0 mm 5 mps 753 mmHg 58%
    06:00 +3°C° 0 mm 6 mps 753 mmHg 60%
    07:00 +5°C° 0 mm 7 mps 753 mmHg 56%
    08:00 +6°C° 0 mm 7 mps 754 mmHg 53%
    09:00 +7°C° 0 mm 8 mps 754 mmHg 50%
    10:00 +9°C° 0 mm 7 mps 754 mmHg 47%
    11:00 +10°C° 0 mm 7 mps 754 mmHg 44%
    12:00 +11°C° 0 mm 7 mps 754 mmHg 41%
    13:00 +11°C° 0 mm 7 mps 754 mmHg 39%
    14:00 +13°C° 0 mm 6 mps 754 mmHg 38%
    15:00 +13°C° 0 mm 6 mps 754 mmHg 36%
    16:00 +10°C° 0 mm 5 mps 755 mmHg 42%
    17:00 +8°C° 0 mm 4 mps 755 mmHg 47%
    18:00 +8°C° 0 mm 3 mps 756 mmHg 52%
    19:00 +7°C° 0 mm 3 mps 756 mmHg 53%
    20:00 +7°C° 0 mm 3 mps 756 mmHg 53%
    21:00 +5°C° 0 mm 3 mps 757 mmHg 53%
    22:00 +5°C° 0 mm 3 mps 757 mmHg 54%
    23:00 +5°C° 0 mm 3 mps 757 mmHg 54%

    Day after tomorrow, 24 February, Friday

    Time Temperature Precipitation Wind Pressure Humidity
    00:00 +4°C° 0 mm 3 mps 757 mmHg 54%
    01:00 +4°C° 0 mm 3 mps 757 mmHg 54%
    02:00 +4°C° 0 mm 4 mps 757 mmHg 53%
    03:00 +4°C° 0 mm 4 mps 756 mmHg 53%
    04:00 +4°C° 0 mm 4 mps 757 mmHg 53%
    05:00 +4°C° 0 mm 4 mps 757 mmHg 54%
    06:00 +4°C° 0 mm 4 mps 757 mmHg 54%
    07:00 +5°C° 0 mm 4 mps 757 mmHg 50%
    08:00 +7°C° 0 mm 4 mps 757 mmHg 46%
    09:00 +10°C° 0 mm 4 mps 758 mmHg 42%
    10:00 +11°C° 0 mm 4 mps 757 mmHg 39%
    11:00 +13°C° 0 mm 4 mps 757 mmHg 37%
    12:00 +14°C° 0 mm 4 mps 757 mmHg 34%
    13:00 +14°C° 0 mm 3 mps 757 mmHg 34%
    14:00 +16°C° 0 mm 3 mps 757 mmHg 35%
    15:00 +16°C° 0 mm 3 mps 757 mmHg 35%
    16:00 +13°C° 0 mm 3 mps 757 mmHg 40%
    17:00 +12°C° 0 mm 2 mps 757 mmHg 45%
    18:00 +9°C° 0 mm 2 mps 758 mmHg 51%
    19:00 +9°C° 0 mm 2 mps 758 mmHg 51%
    20:00 +9°C° 0 mm 2 mps 758 mmHg 51%
    21:00 +8°C° 0 mm 2 mps 759 mmHg 52%
    22:00 +8°C° 0 mm 2 mps 759 mmHg 53%
    23:00 +8°C° 0 mm 1 mps 759 mmHg 54%

    25 February, Saturday

    Time Temperature Precipitation Wind Pressure Humidity
    00:00 +8°C° 0 mm 1 mps 758 mmHg 55%
    01:00 +7°C° 0 mm 2 mps 758 mmHg 56%
    02:00 +7°C° 0 mm 2 mps 758 mmHg 56%
    03:00 +7°C° 0 mm 2 mps 758 mmHg 56%
    04:00 +6°C° 0 mm 2 mps 758 mmHg 56%
    05:00 +6°C° 0 mm 2 mps 758 mmHg 56%
    06:00 +6°C° 0 mm 2 mps 758 mmHg 57%
    07:00 +8°C° 0 mm 2 mps 758 mmHg 52%
    08:00 +10°C° 0 mm 2 mps 758 mmHg 47%
    09:00 +13°C° 0 mm 2 mps 758 mmHg 42%
    10:00 +13°C° 0 mm 3 mps 757 mmHg 39%
    11:00 +16°C° 0 mm 3 mps 756 mmHg 36%
    12:00 +17°C° 0 mm 3 mps 756 mmHg 34%
    13:00 +17°C° 0 mm 3 mps 755 mmHg 34%
    14:00 +18°C° 0 mm 3 mps 755 mmHg 33%
    15:00 +18°C° 0 mm 3 mps 754 mmHg 33%
    16:00 +16°C° 0 mm 3 mps 754 mmHg 38%
    17:00 +14°C° 0 mm 2 mps 754 mmHg 44%
    18:00 +12°C° 0 mm 2 mps 754 mmHg 49%
    19:00 +12°C° 0 mm 2 mps 755 mmHg 49%
    20:00 +10°C° 0 mm 2 mps 755 mmHg 49%
    21:00 +10°C° 0 mm 3 mps 755 mmHg 49%
    22:00 +10°C° 0 mm 3 mps 754 mmHg 49%
    23:00 +9°C° 0 mm 3 mps 754 mmHg 48%

    26 February, Sunday

    Time Temperature Precipitation Wind Pressure Humidity
    00:00 +9°C° 0 mm 3 mps 754 mmHg 48%
    01:00 +8°C° 0 mm 4 mps 753 mmHg 47%
    02:00 +8°C° 0 mm 4 mps 753 mmHg 46%
    03:00 +7°C° 0 mm 5 mps 753 mmHg 45%
    04:00 +7°C° 0 mm 5 mps 752 mmHg 45%
    05:00 +7°C° 0 mm 5 mps 752 mmHg 45%
    06:00 +7°C° 0 mm 6 mps 752 mmHg 45%
    07:00 +9°C° 0 mm 6 mps 752 mmHg 42%
    08:00 +11°C° 0 mm 6 mps 753 mmHg 39%
    09:00 +13°C° 0 mm 6 mps 753 mmHg 37%
    10:00 +15°C° 0 mm 7 mps 753 mmHg 34%
    11:00 +16°C° 0 mm 7 mps 753 mmHg 32%
    12:00 +17°C° 0 mm 7 mps 753 mmHg 30%
    13:00 +17°C° 0 mm 7 mps 753 mmHg 31%
    14:00 +17°C° 0 mm 7 mps 753 mmHg 33%
    15:00 +17°C° 0 mm 7 mps 753 mmHg 34%
    16:00 +16°C° 0 mm 6 mps 754 mmHg 39%
    17:00 +14°C° 0 mm 5 mps 755 mmHg 44%
    18:00 +12°C° 0 mm 3 mps 756 mmHg 49%
    19:00 +11°C° 0 mm 4 mps 757 mmHg 53%
    20:00 +8°C° 0 mm 4 mps 758 mmHg 56%
    21:00 +7°C° 0 mm 4 mps 759 mmHg 60%
    22:00 +6°C° 0 mm 4 mps 760 mmHg 63%
    23:00 +5°C° 0 mm 4 mps 760 mmHg 66%

    27 February, Monday

    Time Temperature Precipitation Wind Pressure Humidity
    00:00 +4°C° 0 mm 4 mps 761 mmHg 69%
    01:00 +4°C° 0 mm 4 mps 761 mmHg 69%
    02:00 +4°C° 0 mm 3 mps 761 mmHg 69%
    03:00 +3°C° 0 mm 3 mps 761 mmHg 70%
    04:00 +3°C° 0 mm 3 mps 761 mmHg 70%
    05:00 +4°C° 0 mm 2 mps 762 mmHg 71%
    06:00 +3°C° 0 mm 2 mps 762 mmHg 72%
    07:00 +4°C° 0 mm 2 mps 762 mmHg 69%
    08:00 +5°C° 0 mm 2 mps 762 mmHg 65%
    09:00 +6°C° 0 mm 2 mps 761 mmHg 61%
    10:00 +7°C° 0 mm 2 mps 761 mmHg 58%
    11:00 +9°C° 0 mm 1 mps 760 mmHg 56%
    12:00 +10°C° 0 mm 1 mps 759 mmHg 53%
    13:00 +11°C° 0 mm 1 mps 758 mmHg 51%
    14:00 +11°C° 0 mm 1 mps 757 mmHg 50%
    15:00 +12°C° 0 mm 2 mps 757 mmHg 48%
    16:00 +11°C° 0 mm 1 mps 757 mmHg 53%
    17:00 +9°C° 0 mm 1 mps 757 mmHg 57%
    18:00 +8°C° 0 mm 1 mps 757 mmHg 62%
    19:00 +8°C° 0 mm 1 mps 757 mmHg 64%
    20:00 +8°C° 0 mm 1 mps 757 mmHg 65%
    21:00 +7°C° 0 mm 1 mps 757 mmHg 66%
    22:00 +7°C° 0 mm 1 mps 757 mmHg 67%
    23:00 +6°C° 0 mm 2 mps 757 mmHg 67%
    Show more